Time,TemperatureF,DewpointF,PressureIn,WindDirection,WindDirectionDegrees,WindSpeedMPH,WindSpeedGustMPH,Humidity,HourlyPrecipIn,Conditions,Clouds,dailyrainin,SoftwareType,DateUTC
2013-02-21 00:00:00,22.5,-10.6,29.91,SW,231,6.9,15.4,22,0.00,,---,0.00,VWS V14.01,2013-02-21 05:00:00,
2013-02-21 00:05:00,22.5,-10.6,29.91,West,276,5.8,13.4,22,0.00,,---,0.00,VWS V14.01,2013-02-21 05:05:00,
2013-02-21 00:10:00,22.5,-10.6,29.91,NW,323,9.2,17.2,22,0.00,,---,0.00,VWS V14.01,2013-02-21 05:10:00,
2013-02-21 00:15:00,22.5,-10.6,29.91,NW,321,7.8,14.3,22,0.00,,---,0.00,VWS V14.01,2013-02-21 05:15:00,
2013-02-21 00:20:00,22.5,-10.6,29.91,NW,309,9.6,13.4,22,0.00,,---,0.00,VWS V14.01,2013-02-21 05:20:00,
2013-02-21 00:25:00,22.5,-10.6,29.91,NNW,329,10.5,19.0,22,0.00,,---,0.00,VWS V14.01,2013-02-21 05:25:00,
2013-02-21 00:30:00,22.6,-10.5,29.91,WNW,282,14.3,19.0,22,0.00,,---,0.00,VWS V14.01,2013-02-21 05:30:00,
2013-02-21 00:35:00,22.6,-10.5,29.91,WNW,286,14.3,19.0,22,0.00,,---,0.00,VWS V14.01,2013-02-21 05:35:00,
2013-02-21 00:40:00,22.6,-10.5,29.91,WNW,301,11.2,14.3,22,0.00,,---,0.00,VWS V14.01,2013-02-21 05:40:00,
2013-02-21 00:45:00,22.6,-10.5,29.91,WNW,286,11.0,19.9,22,0.00,,---,0.00,VWS V14.01,2013-02-21 05:45:00,
2013-02-21 00:50:00,22.6,-7.9,29.91,NW,326,9.2,15.9,25,0.00,,---,0.00,VWS V14.01,2013-02-21 05:50:00,
2013-02-21 00:55:00,22.6,-7.9,29.91,NW,317,11.0,15.9,25,0.00,,---,0.00,VWS V14.01,2013-02-21 05:55:00,
2013-02-21 01:00:00,22.5,-8.0,29.91,WNW,301,8.3,15.2,25,0.00,,---,0.00,VWS V14.01,2013-02-21 06:00:00,
2013-02-21 01:05:00,22.5,-8.0,29.91,West,279,11.0,20.1,25,0.00,,---,0.00,VWS V14.01,2013-02-21 06:05:00,
2013-02-21 01:10:00,22.5,-8.0,29.88,NW,312,13.9,20.6,25,0.00,,---,0.00,VWS V14.01,2013-02-21 06:10:00,
2013-02-21 01:15:00,22.6,-7.9,29.88,WNW,289,8.7,16.8,25,0.00,,---,0.00,VWS V14.01,2013-02-21 06:15:00,
2013-02-21 01:20:00,22.5,-8.0,29.88,West,276,11.0,15.9,25,0.00,,---,0.00,VWS V14.01,2013-02-21 06:20:00,
2013-02-21 01:25:00,22.5,-8.0,29.91,NW,315,14.3,17.7,25,0.00,,---,0.00,VWS V14.01,2013-02-21 06:25:00,
2013-02-21 01:30:00,22.5,-8.0,29.91,NW,317,6.7,17.2,25,0.00,,---,0.00,VWS V14.01,2013-02-21 06:30:00,
2013-02-21 01:35:00,22.3,-8.2,29.91,West,271,7.8,15.9,25,0.00,,---,0.00,VWS V14.01,2013-02-21 06:35:00,
2013-02-21 01:40:00,22.3,-8.2,29.88,NW,309,5.8,15.9,25,0.00,,---,0.00,VWS V14.01,2013-02-21 06:40:00,
2013-02-21 01:45:00,22.3,-8.2,29.88,WNW,288,9.6,16.8,25,0.00,,---,0.00,VWS V14.01,2013-02-21 06:45:00,
2013-02-21 01:50:00,22.1,-8.3,29.88,West,279,12.5,14.3,25,0.00,,---,0.00,VWS V14.01,2013-02-21 06:50:00,
2013-02-21 01:55:00,22.1,-8.3,29.88,WNW,288,5.4,12.5,25,0.00,,---,0.00,VWS V14.01,2013-02-21 06:55:00,
2013-02-21 02:00:00,22.1,-8.3,29.88,WNW,292,6.9,11.0,25,0.00,,---,0.00,VWS V14.01,2013-02-21 07:00:00,
2013-02-21 02:05:00,22.1,-8.3,29.88,NW,305,10.5,12.1,25,0.00,,---,0.00,VWS V14.01,2013-02-21 07:05:00,
2013-02-21 02:10:00,22.1,-8.3,29.88,West,268,7.8,15.4,25,0.00,,---,0.00,VWS V14.01,2013-02-21 07:10:00,
2013-02-21 02:15:00,22.1,-8.3,29.88,WNW,284,8.3,11.0,25,0.00,,---,0.00,VWS V14.01,2013-02-21 07:15:00,
2013-02-21 02:20:00,21.9,-8.5,29.88,West,267,6.3,13.0,25,0.00,,---,0.00,VWS V14.01,2013-02-21 07:20:00,
2013-02-21 02:25:00,21.9,-8.5,29.88,WNW,282,10.1,13.4,25,0.00,,---,0.00,VWS V14.01,2013-02-21 07:25:00,
2013-02-21 02:30:00,21.9,-8.5,29.88,WNW,293,11.2,16.3,25,0.00,,---,0.00,VWS V14.01,2013-02-21 07:30:00,
2013-02-21 02:35:00,21.7,-8.6,29.88,WNW,303,9.2,13.4,25,0.00,,---,0.00,VWS V14.01,2013-02-21 07:35:00,
2013-02-21 02:40:00,21.7,-8.6,29.88,WNW,288,9.2,16.3,25,0.00,,---,0.00,VWS V14.01,2013-02-21 07:40:00,
2013-02-21 02:45:00,21.7,-8.6,29.88,WNW,287,4.0,15.4,25,0.00,,---,0.00,VWS V14.01,2013-02-21 07:45:00,
2013-02-21 02:50:00,21.7,-8.6,29.88,NW,323,6.7,16.3,25,0.00,,---,0.00,VWS V14.01,2013-02-21 07:50:00,
2013-02-21 02:55:00,21.7,-8.6,29.88,WNW,285,12.1,15.2,25,0.00,,---,0.00,VWS V14.01,2013-02-21 07:55:00,
2013-02-21 03:00:00,21.7,-7.1,29.88,WNW,293,9.2,16.3,27,0.00,,---,0.00,VWS V14.01,2013-02-21 08:00:00,
2013-02-21 03:05:00,21.7,-7.1,29.88,West,278,8.3,16.3,27,0.00,,---,0.00,VWS V14.01,2013-02-21 08:05:00,
2013-02-21 03:10:00,21.7,-7.1,29.88,NW,312,6.9,13.4,27,0.00,,---,0.00,VWS V14.01,2013-02-21 08:10:00,
2013-02-21 03:15:00,21.6,-7.2,29.88,NW,305,9.6,15.4,27,0.00,,---,0.00,VWS V14.01,2013-02-21 08:15:00,
2013-02-21 03:20:00,21.6,-7.2,29.88,WSW,258,13.4,17.2,27,0.00,,---,0.00,VWS V14.01,2013-02-21 08:20:00,
2013-02-21 03:25:00,21.6,-7.2,29.88,West,263,7.4,13.4,27,0.00,,---,0.00,VWS V14.01,2013-02-21 08:25:00,
2013-02-21 03:30:00,21.6,-7.2,29.88,West,264,5.8,11.6,27,0.00,,---,0.00,VWS V14.01,2013-02-21 08:30:00,
2013-02-21 03:35:00,21.4,-7.4,29.88,West,270,3.6,11.0,27,0.00,,---,0.00,VWS V14.01,2013-02-21 08:35:00,
2013-02-21 03:40:00,21.4,-7.4,29.88,WNW,286,6.9,15.4,27,0.00,,---,0.00,VWS V14.01,2013-02-21 08:40:00,
2013-02-21 03:45:00,21.4,-7.4,29.88,West,277,7.8,10.1,27,0.00,,---,0.00,VWS V14.01,2013-02-21 08:45:00,
2013-02-21 03:50:00,21.4,-7.4,29.88,WNW,291,6.9,17.7,27,0.00,,---,0.00,VWS V14.01,2013-02-21 08:50:00,
2013-02-21 03:55:00,21.4,-7.4,29.88,NW,310,13.4,15.2,27,0.00,,---,0.00,VWS V14.01,2013-02-21 08:55:00,
2013-02-21 04:00:00,21.4,-7.4,29.88,NW,315,4.5,13.4,27,0.00,,---,0.00,VWS V14.01,2013-02-21 09:00:00,
2013-02-21 04:05:00,21.4,-7.4,29.88,West,263,5.8,11.2,27,0.00,,---,0.00,VWS V14.01,2013-02-21 09:05:00,
2013-02-21 04:10:00,21.4,-7.4,29.88,WSW,248,6.3,6.3,27,0.00,,---,0.00,VWS V14.01,2013-02-21 09:10:00,
2013-02-21 04:15:00,21.4,-7.4,29.88,West,280,10.5,10.5,27,0.00,,---,0.00,VWS V14.01,2013-02-21 09:15:00,
2013-02-21 04:20:00,21.4,-7.4,29.88,WSW,253,5.8,6.9,27,0.00,,---,0.00,VWS V14.01,2013-02-21 09:20:00,
2013-02-21 04:25:00,21.4,-7.4,29.91,WSW,240,3.1,3.1,27,0.00,,---,0.00,VWS V14.01,2013-02-21 09:25:00,
2013-02-21 04:30:00,21.6,-7.2,29.91,WNW,293,7.8,7.8,27,0.00,,---,0.00,VWS V14.01,2013-02-21 09:30:00,
2013-02-21 04:35:00,21.6,-5.1,29.91,WNW,293,10.5,10.5,30,0.00,,---,0.00,VWS V14.01,2013-02-21 09:35:00,
2013-02-21 04:40:00,21.6,-5.1,29.91,WSW,244,8.3,9.6,30,0.00,,---,0.00,VWS V14.01,2013-02-21 09:40:00,
2013-02-21 04:45:00,21.6,-5.1,29.91,NW,306,4.5,4.9,30,0.00,,---,0.00,VWS V14.01,2013-02-21 09:45:00,
2013-02-21 04:50:00,21.7,-4.9,29.91,West,264,6.3,6.7,30,0.00,,---,0.00,VWS V14.01,2013-02-21 09:50:00,
2013-02-21 04:55:00,21.7,-4.9,29.91,West,263,6.7,7.8,30,0.00,,---,0.00,VWS V14.01,2013-02-21 09:55:00,
2013-02-21 05:00:00,21.7,-4.9,29.91,WNW,291,3.1,6.3,30,0.00,,---,0.00,VWS V14.01,2013-02-21 10:00:00,
2013-02-21 05:05:00,21.7,-4.9,29.91,West,278,10.5,10.5,30,0.00,,---,0.00,VWS V14.01,2013-02-21 10:05:00,
2013-02-21 05:10:00,21.7,-4.9,29.91,West,275,10.1,10.5,30,0.00,,---,0.00,VWS V14.01,2013-02-21 10:10:00,
2013-02-21 05:15:00,21.9,-4.8,29.91,WNW,298,9.2,9.2,30,0.00,,---,0.00,VWS V14.01,2013-02-21 10:15:00,
2013-02-21 05:20:00,21.9,-4.8,29.91,NW,312,6.7,7.4,30,0.00,,---,0.00,VWS V14.01,2013-02-21 10:20:00,
2013-02-21 05:26:00,22.1,-4.6,29.91,NNW,328,5.4,9.2,30,0.00,,---,0.00,VWS V14.01,2013-02-21 10:26:00,
2013-02-21 05:31:00,22.1,-4.6,29.91,WNW,289,5.8,9.6,30,0.00,,---,0.00,VWS V14.01,2013-02-21 10:31:00,
2013-02-21 05:36:00,22.1,-4.6,29.91,WNW,303,4.9,4.9,30,0.00,,---,0.00,VWS V14.01,2013-02-21 10:36:00,
2013-02-21 05:41:00,22.1,-4.6,29.91,WNW,297,15.9,16.8,30,0.00,,---,0.00,VWS V14.01,2013-02-21 10:41:00,
2013-02-21 05:46:00,22.1,-4.6,29.91,WNW,303,13.0,15.2,30,0.00,,---,0.00,VWS V14.01,2013-02-21 10:46:00,
2013-02-21 05:51:00,22.1,-4.6,29.91,WNW,301,7.8,12.1,30,0.00,,---,0.00,VWS V14.01,2013-02-21 10:51:00,
2013-02-21 05:56:00,21.9,-6.9,29.91,WNW,295,9.2,9.2,27,0.00,,---,0.00,VWS V14.01,2013-02-21 10:56:00,
2013-02-21 06:01:00,21.7,-7.1,29.91,WNW,284,11.2,12.1,27,0.00,,---,0.00,VWS V14.01,2013-02-21 11:01:00,
2013-02-21 06:06:00,21.7,-7.1,29.91,West,276,12.1,12.1,27,0.00,,---,0.00,VWS V14.01,2013-02-21 11:06:00,
2013-02-21 06:11:00,21.6,-7.2,29.91,WNW,288,13.4,13.4,27,0.00,,---,0.00,VWS V14.01,2013-02-21 11:11:00,
2013-02-21 06:16:00,21.6,-7.2,29.91,NW,305,11.6,11.6,27,0.00,,---,0.00,VWS V14.01,2013-02-21 11:16:00,
2013-02-21 06:21:00,21.6,-7.2,29.91,SW,233,6.9,7.8,27,0.00,,---,0.00,VWS V14.01,2013-02-21 11:21:00,
2013-02-21 06:26:00,21.6,-7.2,29.91,NW,316,10.5,10.5,27,0.00,,---,0.00,VWS V14.01,2013-02-21 11:26:00,
2013-02-21 06:31:00,21.6,-7.2,29.91,NW,315,3.6,5.8,27,0.00,,---,0.00,VWS V14.01,2013-02-21 11:31:00,
2013-02-21 06:36:00,21.6,-7.2,29.91,WNW,284,4.9,6.9,27,0.00,,---,0.00,VWS V14.01,2013-02-21 11:36:00,
2013-02-21 06:41:00,21.6,-7.2,29.91,NW,315,5.8,5.8,27,0.00,,---,0.00,VWS V14.01,2013-02-21 11:41:00,
2013-02-21 06:46:00,21.4,-7.4,29.91,WNW,292,12.1,13.9,27,0.00,,---,0.00,VWS V14.01,2013-02-21 11:46:00,
2013-02-21 06:51:00,21.6,-7.2,29.91,NW,305,3.1,8.7,27,0.00,,---,0.00,VWS V14.01,2013-02-21 11:51:00,
2013-02-21 06:56:00,21.6,-7.2,29.91,West,273,7.8,9.6,27,0.00,,---,0.00,VWS V14.01,2013-02-21 11:56:00,
2013-02-21 07:01:00,21.6,-7.2,29.91,WSW,241,7.8,13.0,27,0.00,,---,0.00,VWS V14.01,2013-02-21 12:01:00,
2013-02-21 07:06:00,21.6,-7.2,29.91,West,265,15.4,15.4,27,0.00,,---,0.00,VWS V14.01,2013-02-21 12:06:00,
2013-02-21 07:11:00,21.7,-4.9,29.91,WNW,295,10.1,19.9,30,0.00,,---,0.00,VWS V14.01,2013-02-21 12:11:00,
2013-02-21 07:16:00,22.1,-4.6,29.91,NW,305,6.3,11.6,30,0.00,,---,0.00,VWS V14.01,2013-02-21 12:16:00,
2013-02-21 07:21:00,22.5,-4.3,29.91,WNW,289,11.6,12.5,30,0.00,,---,0.00,VWS V14.01,2013-02-21 12:21:00,
2013-02-21 07:26:00,22.6,-6.3,29.91,West,278,13.0,16.8,27,0.00,,---,0.00,VWS V14.01,2013-02-21 12:26:00,
2013-02-21 07:31:00,23.9,-3.7,29.91,WNW,292,8.7,13.4,29,0.00,,---,0.00,VWS V14.01,2013-02-21 12:31:00,
2013-02-21 07:36:00,25.5,-2.3,29.91,NW,324,5.4,13.4,29,0.00,,---,0.00,VWS V14.01,2013-02-21 12:36:00,
2013-02-21 07:41:00,25.2,-4.1,29.91,WNW,283,16.3,16.3,27,0.00,,---,0.00,VWS V14.01,2013-02-21 12:41:00,
2013-02-21 07:46:00,24.8,-6.9,29.91,WNW,295,9.2,13.0,24,0.00,,---,0.00,VWS V14.01,2013-02-21 12:46:00,
2013-02-21 07:51:00,24.8,-6.9,29.91,NNW,330,6.9,15.2,24,0.00,,---,0.00,VWS V14.01,2013-02-21 12:51:00,
2013-02-21 07:56:00,25.0,-6.7,29.91,WNW,303,6.7,11.2,24,0.00,,---,0.00,VWS V14.01,2013-02-21 12:56:00,
2013-02-21 08:01:00,25.3,-6.4,29.91,West,273,8.7,9.6,24,0.00,,---,0.00,VWS V14.01,2013-02-21 13:01:00,
2013-02-21 08:06:00,25.5,-6.2,29.91,WSW,248,15.4,15.4,24,0.00,,---,0.00,VWS V14.01,2013-02-21 13:06:00,
2013-02-21 08:11:00,25.5,-6.2,29.91,North,351,2.7,11.6,24,0.00,,---,0.00,VWS V14.01,2013-02-21 13:11:00,
2013-02-21 08:16:00,25.5,-6.2,29.91,West,269,7.4,12.5,24,0.00,,---,0.00,VWS V14.01,2013-02-21 13:16:00,
2013-02-21 08:21:00,25.7,-6.1,29.94,NE,44,8.3,19.5,24,0.00,,---,0.00,VWS V14.01,2013-02-21 13:21:00,
2013-02-21 08:26:00,26.1,-5.8,29.94,West,278,8.7,12.1,24,0.00,,---,0.00,VWS V14.01,2013-02-21 13:26:00,
2013-02-21 08:31:00,26.2,-5.6,29.94,NW,309,5.4,14.3,24,0.00,,---,0.00,VWS V14.01,2013-02-21 13:31:00,
2013-02-21 08:36:00,26.2,-5.6,29.91,NW,312,4.9,7.8,24,0.00,,---,0.00,VWS V14.01,2013-02-21 13:36:00,
2013-02-21 08:41:00,26.2,-8.4,29.91,West,267,12.1,13.9,21,0.00,,---,0.00,VWS V14.01,2013-02-21 13:41:00,
2013-02-21 08:46:00,26.4,-5.5,29.91,WNW,295,5.4,9.6,24,0.00,,---,0.00,VWS V14.01,2013-02-21 13:46:00,
2013-02-21 08:51:00,26.6,-8.1,29.94,West,266,8.7,12.5,21,0.00,,---,0.00,VWS V14.01,2013-02-21 13:51:00,
2013-02-21 08:56:00,27.0,-7.8,29.94,NNW,330,7.4,17.7,21,0.00,,---,0.00,VWS V14.01,2013-02-21 13:56:00,
2013-02-21 09:01:00,27.0,-7.8,29.94,West,274,5.8,11.6,21,0.00,,---,0.00,VWS V14.01,2013-02-21 14:01:00,
2013-02-21 09:06:00,27.5,-7.3,29.94,North,351,5.8,9.2,21,0.00,,---,0.00,VWS V14.01,2013-02-21 14:06:00,
2013-02-21 09:11:00,28.0,-6.8,29.94,WNW,291,8.3,15.9,21,0.00,,---,0.00,VWS V14.01,2013-02-21 14:11:00,
2013-02-21 09:16:00,28.2,-6.7,29.94,WNW,296,4.5,15.4,21,0.00,,---,0.00,VWS V14.01,2013-02-21 14:16:00,
2013-02-21 09:21:00,28.6,-6.4,29.94,NW,304,4.0,12.5,21,0.00,,---,0.00,VWS V14.01,2013-02-21 14:21:00,
2013-02-21 09:26:00,29.1,-5.9,29.94,WNW,303,4.5,17.7,21,0.00,,---,0.00,VWS V14.01,2013-02-21 14:26:00,
2013-02-21 09:31:00,29.3,-5.8,29.94,WNW,292,9.2,13.0,21,0.00,,---,0.00,VWS V14.01,2013-02-21 14:31:00,
2013-02-21 09:36:00,29.3,-6.8,29.94,NW,310,7.8,10.5,20,0.00,,---,0.00,VWS V14.01,2013-02-21 14:36:00,
2013-02-21 09:41:00,30.4,-5.9,29.94,NW,315,12.5,14.3,20,0.00,,---,0.00,VWS V14.01,2013-02-21 14:41:00,
2013-02-21 09:46:00,30.4,-5.9,29.94,West,267,14.3,16.8,20,0.00,,---,0.00,VWS V14.01,2013-02-21 14:46:00,
2013-02-21 09:51:00,31.1,-5.3,29.94,WNW,291,5.8,12.5,20,0.00,,---,0.00,VWS V14.01,2013-02-21 14:51:00,
2013-02-21 09:56:00,32.2,-4.4,29.94,WNW,282,12.5,13.0,20,0.00,,---,0.00,VWS V14.01,2013-02-21 14:56:00,
2013-02-21 10:01:00,32.0,-4.5,29.94,NNW,332,2.7,12.1,20,0.00,,---,0.00,VWS V14.01,2013-02-21 15:01:00,
2013-02-21 10:06:00,32.7,-3.9,29.94,SW,223,7.4,14.3,20,0.00,,---,0.00,VWS V14.01,2013-02-21 15:06:00,
2013-02-21 10:11:00,32.9,-3.8,29.94,WSW,258,11.0,13.0,20,0.00,,---,0.00,VWS V14.01,2013-02-21 15:11:00,
2013-02-21 10:16:00,33.6,-3.2,29.94,NW,304,3.6,5.4,20,0.00,,---,0.00,VWS V14.01,2013-02-21 15:16:00,
2013-02-21 10:22:00,33.8,-6.4,29.94,West,274,17.2,23.7,17,0.00,,---,0.00,VWS V14.01,2013-02-21 15:22:00,
2013-02-21 10:27:00,34.0,-6.2,29.94,NW,305,6.3,15.4,17,0.00,,---,0.00,VWS V14.01,2013-02-21 15:27:00,
2013-02-21 10:32:00,34.7,-5.6,29.94,NW,326,4.0,15.4,17,0.00,,---,0.00,VWS V14.01,2013-02-21 15:32:00,
2013-02-21 10:37:00,34.3,-5.9,29.91,West,262,13.0,13.0,17,0.00,,---,0.00,VWS V14.01,2013-02-21 15:37:00,
2013-02-21 10:42:00,34.2,-6.1,29.91,NW,324,7.4,21.9,17,0.00,,---,0.00,VWS V14.01,2013-02-21 15:42:00,
2013-02-21 10:47:00,34.7,-5.6,29.91,WNW,292,4.9,15.2,17,0.00,,---,0.00,VWS V14.01,2013-02-21 15:47:00,
2013-02-21 10:52:00,34.5,-5.8,29.91,North,0,4.0,11.2,17,0.00,,---,0.00,VWS V14.01,2013-02-21 15:52:00,
2013-02-21 10:57:00,33.1,-7.0,29.91,NW,318,7.4,19.5,17,0.00,,---,0.00,VWS V14.01,2013-02-21 15:57:00,
2013-02-21 11:02:00,33.4,-6.7,29.91,NW,310,6.9,18.6,17,0.00,,---,0.00,VWS V14.01,2013-02-21 16:02:00,
2013-02-21 11:07:00,33.6,-6.5,29.94,NW,314,6.9,15.4,17,0.00,,---,0.00,VWS V14.01,2013-02-21 16:07:00,
2013-02-21 11:12:00,34.5,-5.8,29.94,West,278,10.5,13.4,17,0.00,,---,0.00,VWS V14.01,2013-02-21 16:12:00,
2013-02-21 11:17:00,35.4,-5.1,29.94,NW,317,5.4,14.3,17,0.00,,---,0.00,VWS V14.01,2013-02-21 16:17:00,
2013-02-21 11:22:00,35.8,-4.8,29.94,WNW,303,7.8,7.8,17,0.00,,---,0.00,VWS V14.01,2013-02-21 16:22:00,
2013-02-21 11:27:00,37.0,-5.0,29.94,WNW,295,13.9,16.3,16,0.00,,---,0.00,VWS V14.01,2013-02-21 16:27:00,
2013-02-21 11:32:00,37.8,-4.4,29.94,WNW,294,6.9,12.1,16,0.00,,---,0.00,VWS V14.01,2013-02-21 16:32:00,
2013-02-21 11:37:00,37.4,-4.7,29.94,NNE,28,2.7,19.0,16,0.00,,---,0.00,VWS V14.01,2013-02-21 16:37:00,
2013-02-21 11:42:00,35.8,-4.8,29.94,West,272,14.8,19.0,17,0.00,,---,0.00,VWS V14.01,2013-02-21 16:42:00,
2013-02-21 11:47:00,34.3,-5.9,29.94,NNE,17,6.3,12.1,17,0.00,,---,0.00,VWS V14.01,2013-02-21 16:47:00,
2013-02-21 11:52:00,35.1,-5.3,29.94,NW,316,9.6,17.2,17,0.00,,---,0.00,VWS V14.01,2013-02-21 16:52:00,
2013-02-21 11:57:00,36.9,-5.1,29.94,WNW,289,6.9,7.4,16,0.00,,---,0.00,VWS V14.01,2013-02-21 16:57:00,
2013-02-21 12:02:00,36.3,-4.3,29.94,NNE,15,6.3,19.9,17,0.00,,---,0.00,VWS V14.01,2013-02-21 17:02:00,
2013-02-21 12:07:00,36.3,-4.3,29.94,WNW,292,6.9,21.9,17,0.00,,---,0.00,VWS V14.01,2013-02-21 17:07:00,
2013-02-21 12:12:00,36.0,-4.6,29.94,West,278,17.7,18.1,17,0.00,,---,0.00,VWS V14.01,2013-02-21 17:12:00,
2013-02-21 12:17:00,36.3,-4.3,29.94,WNW,286,4.9,21.5,17,0.00,,---,0.00,VWS V14.01,2013-02-21 17:17:00,
2013-02-21 12:22:00,35.4,-5.1,29.94,West,263,12.1,22.4,17,0.00,,---,0.00,VWS V14.01,2013-02-21 17:22:00,
2013-02-21 12:27:00,35.8,-4.8,29.94,NNW,337,6.3,13.9,17,0.00,,---,0.00,VWS V14.01,2013-02-21 17:27:00,
2013-02-21 12:32:00,35.8,-4.8,29.94,WNW,298,7.8,16.8,17,0.00,,---,0.00,VWS V14.01,2013-02-21 17:32:00,
2013-02-21 12:37:00,36.1,-4.5,29.94,NNW,339,11.6,23.3,17,0.00,,---,0.00,VWS V14.01,2013-02-21 17:37:00,
2013-02-21 12:42:00,36.3,-4.3,29.94,NW,323,6.9,11.6,17,0.00,,---,0.00,VWS V14.01,2013-02-21 17:42:00,
2013-02-21 12:47:00,36.9,-5.1,29.94,NW,318,6.7,11.2,16,0.00,,---,0.00,VWS V14.01,2013-02-21 17:47:00,
2013-02-21 12:52:00,37.0,-5.0,29.91,NW,308,3.6,12.1,16,0.00,,---,0.00,VWS V14.01,2013-02-21 17:52:00,
2013-02-21 12:57:00,37.6,-4.5,29.91,North,356,2.7,15.4,16,0.00,,---,0.00,VWS V14.01,2013-02-21 17:57:00,
2013-02-21 13:02:00,37.4,-4.7,29.91,NW,305,13.0,17.2,16,0.00,,---,0.00,VWS V14.01,2013-02-21 18:02:00,
2013-02-21 13:07:00,37.0,-5.0,29.91,NE,38,5.8,14.3,16,0.00,,---,0.00,VWS V14.01,2013-02-21 18:07:00,
2013-02-21 13:12:00,36.1,-4.5,29.91,WSW,257,11.2,13.0,17,0.00,,---,0.00,VWS V14.01,2013-02-21 18:12:00,
2013-02-21 13:17:00,36.3,-4.3,29.91,NE,42,8.3,10.5,17,0.00,,---,0.00,VWS V14.01,2013-02-21 18:17:00,
2013-02-21 13:22:00,36.1,-4.5,29.91,West,276,17.7,21.0,17,0.00,,---,0.00,VWS V14.01,2013-02-21 18:22:00,
2013-02-21 13:27:00,35.8,-4.8,29.91,NW,316,11.0,21.9,17,0.00,,---,0.00,VWS V14.01,2013-02-21 18:27:00,
2013-02-21 13:32:00,35.6,-4.9,29.91,West,275,9.2,13.9,17,0.00,,---,0.00,VWS V14.01,2013-02-21 18:32:00,
2013-02-21 13:37:00,36.1,-4.5,29.91,WNW,282,18.6,18.6,17,0.00,,---,0.00,VWS V14.01,2013-02-21 18:37:00,
2013-02-21 13:42:00,35.4,-5.1,29.91,WNW,287,6.3,15.9,17,0.00,,---,0.00,VWS V14.01,2013-02-21 18:42:00,
2013-02-21 13:47:00,35.8,-4.8,29.91,WNW,287,13.0,18.1,17,0.00,,---,0.00,VWS V14.01,2013-02-21 18:47:00,
2013-02-21 13:52:00,35.8,-4.8,29.91,NW,323,4.5,12.5,17,0.00,,---,0.00,VWS V14.01,2013-02-21 18:52:00,
2013-02-21 13:57:00,36.3,-4.3,29.91,WNW,303,5.8,11.2,17,0.00,,---,0.00,VWS V14.01,2013-02-21 18:57:00,
2013-02-21 14:02:00,35.8,-4.8,29.91,NE,37,2.7,10.5,17,0.00,,---,0.00,VWS V14.01,2013-02-21 19:02:00,
2013-02-21 14:07:00,36.3,-4.3,29.94,WNW,286,11.2,18.1,17,0.00,,---,0.00,VWS V14.01,2013-02-21 19:07:00,
2013-02-21 14:12:00,36.3,-4.3,29.94,NNW,330,9.2,15.9,17,0.00,,---,0.00,VWS V14.01,2013-02-21 19:12:00,
2013-02-21 14:17:00,36.1,-4.5,29.94,NNE,12,4.5,6.9,17,0.00,,---,0.00,VWS V14.01,2013-02-21 19:17:00,
2013-02-21 14:22:00,35.2,-5.2,29.94,NNW,329,12.1,16.8,17,0.00,,---,0.00,VWS V14.01,2013-02-21 19:22:00,
2013-02-21 14:27:00,35.1,-5.3,29.94,North,4,3.6,10.5,17,0.00,,---,0.00,VWS V14.01,2013-02-21 19:27:00,
2013-02-21 14:32:00,34.7,-5.6,29.94,WNW,299,2.7,14.3,17,0.00,,---,0.00,VWS V14.01,2013-02-21 19:32:00,
2013-02-21 14:37:00,34.3,-5.9,29.94,NNE,24,6.9,13.0,17,0.00,,---,0.00,VWS V14.01,2013-02-21 19:37:00,
2013-02-21 14:42:00,33.8,-6.4,29.94,NNW,341,4.0,15.2,17,0.00,,---,0.00,VWS V14.01,2013-02-21 19:42:00,
2013-02-21 14:47:00,34.2,-6.1,29.94,NW,316,0.0,14.3,17,0.00,,---,0.00,VWS V14.01,2013-02-21 19:47:00,
2013-02-21 14:52:00,34.0,-6.2,29.94,NNE,19,6.9,11.0,17,0.00,,---,0.00,VWS V14.01,2013-02-21 19:52:00,
2013-02-21 14:57:00,33.6,-6.5,29.94,NNE,26,13.4,13.4,17,0.00,,---,0.00,VWS V14.01,2013-02-21 19:57:00,
2013-02-21 15:02:00,33.4,-6.7,29.94,NNE,22,11.0,11.0,17,0.00,,---,0.00,VWS V14.01,2013-02-21 20:02:00,
2013-02-21 15:07:00,33.6,-6.5,29.97,WNW,299,3.1,13.9,17,0.00,,---,0.00,VWS V14.01,2013-02-21 20:07:00,
2013-02-21 15:12:00,34.0,-6.2,29.97,NNW,337,6.3,15.2,17,0.00,,---,0.00,VWS V14.01,2013-02-21 20:12:00,
2013-02-21 15:17:00,33.4,-6.7,29.97,WNW,293,6.7,10.5,17,0.00,,---,0.00,VWS V14.01,2013-02-21 20:17:00,
2013-02-21 15:22:00,33.3,-6.8,29.97,West,264,14.3,16.3,17,0.00,,---,0.00,VWS V14.01,2013-02-21 20:22:00,
2013-02-21 15:27:00,33.1,-7.0,29.97,North,2,2.7,8.7,17,0.00,,---,0.00,VWS V14.01,2013-02-21 20:27:00,
2013-02-21 15:32:00,32.4,-6.4,29.97,North,9,14.8,21.0,18,0.00,,---,0.00,VWS V14.01,2013-02-21 20:32:00,
2013-02-21 15:37:00,32.4,-6.4,29.97,WNW,291,9.2,14.3,18,0.00,,---,0.00,VWS V14.01,2013-02-21 20:37:00,
2013-02-21 15:42:00,32.2,-6.6,29.97,North,5,8.3,13.4,18,0.00,,---,0.00,VWS V14.01,2013-02-21 20:42:00,
2013-02-21 15:47:00,32.2,-6.6,29.97,NNE,19,6.3,13.0,18,0.00,,---,0.00,VWS V14.01,2013-02-21 20:47:00,
2013-02-21 15:52:00,31.8,-6.8,29.97,North,351,8.7,15.2,18,0.00,,---,0.00,VWS V14.01,2013-02-21 20:52:00,
2013-02-21 15:57:00,31.6,-7.0,29.97,NNE,16,10.1,15.9,18,0.00,,---,0.00,VWS V14.01,2013-02-21 20:57:00,
2013-02-21 16:02:00,31.3,-7.3,29.97,NE,38,16.8,19.5,18,0.00,,---,0.00,VWS V14.01,2013-02-21 21:02:00,
2013-02-21 16:07:00,31.1,-7.4,30.00,WNW,300,5.4,20.1,18,0.00,,---,0.00,VWS V14.01,2013-02-21 21:07:00,
2013-02-21 16:13:00,31.3,-7.3,30.00,NNW,327,0.0,10.1,18,0.00,,---,0.00,VWS V14.01,2013-02-21 21:13:00,
2013-02-21 16:18:00,31.6,-7.0,30.00,WNW,286,6.3,11.2,18,0.00,,---,0.00,VWS V14.01,2013-02-21 21:18:00,
2013-02-21 16:23:00,31.6,-7.0,30.00,NE,44,4.9,13.0,18,0.00,,---,0.00,VWS V14.01,2013-02-21 21:23:00,
2013-02-21 16:28:00,31.1,-7.4,30.00,NNE,17,4.9,13.0,18,0.00,,---,0.00,VWS V14.01,2013-02-21 21:28:00,
2013-02-21 16:33:00,31.1,-7.4,30.00,ESE,104,4.0,7.4,18,0.00,,---,0.00,VWS V14.01,2013-02-21 21:33:00,
2013-02-21 16:38:00,31.3,-7.3,30.00,North,356,4.0,7.4,18,0.00,,---,0.00,VWS V14.01,2013-02-21 21:38:00,
2013-02-21 16:43:00,30.7,-7.7,30.00,WNW,295,6.7,8.3,18,0.00,,---,0.00,VWS V14.01,2013-02-21 21:43:00,
2013-02-21 16:48:00,30.0,-8.3,30.00,NNE,14,13.0,13.0,18,0.00,,---,0.00,VWS V14.01,2013-02-21 21:48:00,
2013-02-21 16:53:00,29.5,-8.8,30.03,NNW,340,4.0,11.6,18,0.00,,---,0.00,VWS V14.01,2013-02-21 21:53:00,
2013-02-21 16:58:00,29.5,-8.8,30.03,North,351,3.1,11.0,18,0.00,,---,0.00,VWS V14.01,2013-02-21 21:58:00,
2013-02-21 17:03:00,28.9,-9.2,30.03,ENE,68,4.9,11.2,18,0.00,,---,0.00,VWS V14.01,2013-02-21 22:03:00,
2013-02-21 17:08:00,28.9,-9.2,30.06,NNE,26,6.9,6.9,18,0.00,,---,0.00,VWS V14.01,2013-02-21 22:08:00,
2013-02-21 17:13:00,28.2,-9.8,30.06,North,5,5.8,13.4,18,0.00,,---,0.00,VWS V14.01,2013-02-21 22:13:00,
2013-02-21 17:18:00,27.7,-10.3,30.06,West,275,8.3,19.9,18,0.00,,---,0.00,VWS V14.01,2013-02-21 22:18:00,
2013-02-21 17:23:00,27.1,-9.6,30.06,North,351,4.9,18.6,19,0.00,,---,0.00,VWS V14.01,2013-02-21 22:23:00,
2013-02-21 17:28:00,26.8,-9.9,30.06,NNW,335,4.9,12.1,19,0.00,,---,0.00,VWS V14.01,2013-02-21 22:28:00,
2013-02-21 17:33:00,26.2,-10.4,30.06,NNE,13,6.3,13.4,19,0.00,,---,0.00,VWS V14.01,2013-02-21 22:33:00,
2013-02-21 17:38:00,25.9,-10.7,30.06,NNE,16,5.4,13.0,19,0.00,,---,0.00,VWS V14.01,2013-02-21 22:38:00,
2013-02-21 17:43:00,25.5,-11.0,30.06,NNW,345,4.0,13.9,19,0.00,,---,0.00,VWS V14.01,2013-02-21 22:43:00,
2013-02-21 17:48:00,25.5,-11.0,30.06,North,356,0.0,12.5,19,0.00,,---,0.00,VWS V14.01,2013-02-21 22:48:00,
2013-02-21 17:53:00,25.3,-11.1,30.09,North,7,4.5,11.0,19,0.00,,---,0.00,VWS V14.01,2013-02-21 22:53:00,
2013-02-21 17:58:00,25.2,-11.3,30.09,North,0,5.8,15.2,19,0.00,,---,0.00,VWS V14.01,2013-02-21 22:58:00,
2013-02-21 18:03:00,25.0,-11.4,30.09,North,356,3.1,8.3,19,0.00,,---,0.00,VWS V14.01,2013-02-21 23:03:00,
2013-02-21 18:08:00,25.0,-8.5,30.09,WNW,294,3.6,8.7,22,0.00,,---,0.00,VWS V14.01,2013-02-21 23:08:00,
2013-02-21 18:13:00,24.6,-8.8,30.09,NNE,25,8.7,11.6,22,0.00,,---,0.00,VWS V14.01,2013-02-21 23:13:00,
2013-02-21 18:18:00,24.4,-8.9,30.09,NNE,20,13.4,13.9,22,0.00,,---,0.00,VWS V14.01,2013-02-21 23:18:00,
2013-02-21 18:23:00,24.3,-9.1,30.09,NNE,13,6.9,13.9,22,0.00,,---,0.00,VWS V14.01,2013-02-21 23:23:00,
2013-02-21 18:28:00,24.1,-9.2,30.09,North,351,3.6,13.0,22,0.00,,---,0.00,VWS V14.01,2013-02-21 23:28:00,
2013-02-21 18:33:00,23.9,-9.4,30.09,North,9,4.5,13.4,22,0.00,,---,0.00,VWS V14.01,2013-02-21 23:33:00,
2013-02-21 18:38:00,23.9,-9.4,30.09,North,356,5.4,10.1,22,0.00,,---,0.00,VWS V14.01,2013-02-21 23:38:00,
2013-02-21 18:43:00,23.7,-9.6,30.09,West,269,4.9,16.8,22,0.00,,---,0.00,VWS V14.01,2013-02-21 23:43:00,
2013-02-21 18:48:00,23.5,-9.7,30.09,North,9,5.4,13.0,22,0.00,,---,0.00,VWS V14.01,2013-02-21 23:48:00,
2013-02-21 18:53:00,23.4,-9.9,30.09,NW,319,6.7,10.5,22,0.00,,---,0.00,VWS V14.01,2013-02-21 23:53:00,
2013-02-21 18:58:00,23.2,-10.0,30.09,NNE,28,16.8,19.0,22,0.00,,---,0.00,VWS V14.01,2013-02-21 23:58:00,
2013-02-21 19:03:00,23.2,-10.0,30.09,NNE,14,20.6,20.6,22,0.00,,---,0.00,VWS V14.01,2013-02-22 00:03:00,
2013-02-21 19:08:00,23.0,-10.2,30.12,North,356,9.2,18.1,22,0.00,,---,0.00,VWS V14.01,2013-02-22 00:08:00,
2013-02-21 19:13:00,23.0,-10.2,30.12,NNE,17,4.9,11.6,22,0.00,,---,0.00,VWS V14.01,2013-02-22 00:13:00,
2013-02-21 19:18:00,22.8,-10.3,30.12,NW,320,4.9,14.3,22,0.00,,---,0.00,VWS V14.01,2013-02-22 00:18:00,
2013-02-21 19:23:00,22.6,-10.5,30.12,North,5,8.3,13.9,22,0.00,,---,0.00,VWS V14.01,2013-02-22 00:23:00,
2013-02-21 19:28:00,22.5,-10.6,30.12,North,351,5.4,13.4,22,0.00,,---,0.00,VWS V14.01,2013-02-22 00:28:00,
2013-02-21 19:33:00,22.3,-10.8,30.12,NNE,20,12.1,13.9,22,0.00,,---,0.00,VWS V14.01,2013-02-22 00:33:00,
2013-02-21 19:38:00,22.1,-10.9,30.12,North,4,6.9,13.4,22,0.00,,---,0.00,VWS V14.01,2013-02-22 00:38:00,
2013-02-21 19:43:00,22.1,-10.9,30.12,NNW,346,6.9,16.8,22,0.00,,---,0.00,VWS V14.01,2013-02-22 00:43:00,
2013-02-21 19:48:00,22.1,-10.9,30.12,NNE,22,4.5,12.1,22,0.00,,---,0.00,VWS V14.01,2013-02-22 00:48:00,
2013-02-21 19:53:00,21.9,-11.1,30.15,North,351,7.4,15.2,22,0.00,,---,0.00,VWS V14.01,2013-02-22 00:53:00,
2013-02-21 19:58:00,21.9,-11.1,30.15,WSW,248,0.0,13.4,22,0.00,,---,0.00,VWS V14.01,2013-02-22 00:58:00,
2013-02-21 20:03:00,21.7,-8.6,30.15,North,9,6.3,10.5,25,0.00,,---,0.00,VWS V14.01,2013-02-22 01:03:00,
2013-02-21 20:08:00,21.7,-8.6,30.15,NNE,13,5.8,11.2,25,0.00,,---,0.00,VWS V14.01,2013-02-22 01:08:00,
2013-02-21 20:13:00,21.6,-8.8,30.15,North,5,6.3,11.0,25,0.00,,---,0.00,VWS V14.01,2013-02-22 01:13:00,
2013-02-21 20:18:00,21.6,-8.8,30.15,NNE,33,0.0,6.9,25,0.00,,---,0.00,VWS V14.01,2013-02-22 01:18:00,
2013-02-21 20:23:00,21.6,-8.8,30.18,WNW,298,5.8,7.8,25,0.00,,---,0.00,VWS V14.01,2013-02-22 01:23:00,
2013-02-21 20:28:00,21.6,-8.8,30.18,WNW,293,3.6,13.9,25,0.00,,---,0.00,VWS V14.01,2013-02-22 01:28:00,
2013-02-21 20:33:00,21.6,-8.8,30.18,NE,39,3.6,9.2,25,0.00,,---,0.00,VWS V14.01,2013-02-22 01:33:00,
2013-02-21 20:38:00,21.6,-8.8,30.18,NNE,13,5.4,11.6,25,0.00,,---,0.00,VWS V14.01,2013-02-22 01:38:00,
2013-02-21 20:43:00,21.6,-8.8,30.18,NNE,28,7.8,9.2,25,0.00,,---,0.00,VWS V14.01,2013-02-22 01:43:00,
2013-02-21 20:48:00,21.6,-8.8,30.18,WSW,254,6.3,11.2,25,0.00,,---,0.00,VWS V14.01,2013-02-22 01:48:00,
2013-02-21 20:53:00,21.6,-8.8,30.21,NNE,22,3.1,8.7,25,0.00,,---,0.00,VWS V14.01,2013-02-22 01:53:00,
2013-02-21 20:58:00,21.6,-7.2,30.21,North,356,8.3,12.5,27,0.00,,---,0.00,VWS V14.01,2013-02-22 01:58:00,
2013-02-21 21:03:00,21.6,-7.2,30.21,NW,320,5.4,11.6,27,0.00,,---,0.00,VWS V14.01,2013-02-22 02:03:00,
2013-02-21 21:08:00,21.4,-7.4,30.21,WNW,292,3.6,8.7,27,0.00,,---,0.00,VWS V14.01,2013-02-22 02:08:00,
2013-02-21 21:13:00,21.4,-7.4,30.21,NNW,330,6.3,9.2,27,0.00,,---,0.00,VWS V14.01,2013-02-22 02:13:00,
2013-02-21 21:18:00,21.4,-7.4,30.21,NE,38,8.3,15.4,27,0.00,,---,0.00,VWS V14.01,2013-02-22 02:18:00,
2013-02-21 21:23:00,21.4,-7.4,30.24,NNW,331,2.7,12.1,27,0.00,,---,0.00,VWS V14.01,2013-02-22 02:23:00,
2013-02-21 21:28:00,21.4,-7.4,30.24,NNE,21,6.7,6.7,27,0.00,,---,0.00,VWS V14.01,2013-02-22 02:28:00,
2013-02-21 21:33:00,21.4,-7.4,30.24,NNE,15,2.7,13.0,27,0.00,,---,0.00,VWS V14.01,2013-02-22 02:33:00,
2013-02-21 21:38:00,21.4,-7.4,30.24,NNE,31,5.4,10.5,27,0.00,,---,0.00,VWS V14.01,2013-02-22 02:38:00,
2013-02-21 21:43:00,21.4,-7.4,30.24,NE,37,6.9,9.2,27,0.00,,---,0.00,VWS V14.01,2013-02-22 02:43:00,
2013-02-21 21:49:00,21.6,-7.2,30.24,North,8,4.5,9.6,27,0.00,,---,0.00,VWS V14.01,2013-02-22 02:49:00,
2013-02-21 21:54:00,21.6,-5.1,30.24,North,356,7.8,8.7,30,0.00,,---,0.00,VWS V14.01,2013-02-22 02:54:00,
2013-02-21 21:59:00,21.6,-5.1,30.24,NE,39,4.5,10.1,30,0.00,,---,0.00,VWS V14.01,2013-02-22 02:59:00,
2013-02-21 22:04:00,21.6,-5.1,30.24,North,10,3.1,11.0,30,0.00,,---,0.00,VWS V14.01,2013-02-22 03:04:00,
2013-02-21 22:09:00,21.6,-5.1,30.24,WNW,294,3.6,7.8,30,0.00,,---,0.00,VWS V14.01,2013-02-22 03:09:00,
2013-02-21 22:14:00,21.6,-5.1,30.24,NNE,20,3.1,6.9,30,0.00,,---,0.00,VWS V14.01,2013-02-22 03:14:00,
2013-02-21 22:19:00,21.6,-5.1,30.24,North,356,4.9,10.5,30,0.00,,---,0.00,VWS V14.01,2013-02-22 03:19:00,
2013-02-21 22:24:00,21.6,-5.1,30.24,WNW,299,4.5,7.8,30,0.00,,---,0.00,VWS V14.01,2013-02-22 03:24:00,
2013-02-21 22:29:00,21.6,-5.1,30.24,NNE,16,8.3,13.9,30,0.00,,---,0.00,VWS V14.01,2013-02-22 03:29:00,
2013-02-21 22:34:00,21.6,-5.1,30.24,North,351,0.0,12.1,30,0.00,,---,0.00,VWS V14.01,2013-02-22 03:34:00,
2013-02-21 22:39:00,21.6,-5.1,30.24,NW,309,6.9,15.4,30,0.00,,---,0.00,VWS V14.01,2013-02-22 03:39:00,
2013-02-21 22:44:00,21.6,-5.1,30.24,WNW,292,3.1,10.5,30,0.00,,---,0.00,VWS V14.01,2013-02-22 03:44:00,
2013-02-21 22:49:00,21.4,-5.2,30.24,WNW,303,3.1,9.6,30,0.00,,---,0.00,VWS V14.01,2013-02-22 03:49:00,
2013-02-21 22:54:00,21.4,-5.2,30.27,North,351,3.1,8.7,30,0.00,,---,0.00,VWS V14.01,2013-02-22 03:54:00,
2013-02-21 22:59:00,21.4,-3.9,30.27,North,6,5.8,10.5,32,0.00,,---,0.00,VWS V14.01,2013-02-22 03:59:00,
2013-02-21 23:04:00,21.4,-3.9,30.27,North,8,2.7,10.1,32,0.00,,---,0.00,VWS V14.01,2013-02-22 04:04:00,
2013-02-21 23:09:00,21.4,-3.9,30.27,NNW,332,8.7,11.2,32,0.00,,---,0.00,VWS V14.01,2013-02-22 04:09:00,
2013-02-21 23:14:00,21.4,-3.9,30.27,NW,308,5.8,13.4,32,0.00,,---,0.00,VWS V14.01,2013-02-22 04:14:00,
2013-02-21 23:19:00,21.4,-3.9,30.27,NNE,17,7.4,11.6,32,0.00,,---,0.00,VWS V14.01,2013-02-22 04:19:00,
2013-02-21 23:24:00,21.2,-4.0,30.27,NNE,27,7.8,7.8,32,0.00,,---,0.00,VWS V14.01,2013-02-22 04:24:00,
2013-02-21 23:29:00,21.2,-4.0,30.27,NNE,17,5.8,7.4,32,0.00,,---,0.00,VWS V14.01,2013-02-22 04:29:00,
2013-02-21 23:34:00,21.2,-3.4,30.27,NNE,18,4.5,12.1,33,0.00,,---,0.00,VWS V14.01,2013-02-22 04:34:00,
2013-02-21 23:39:00,21.0,-3.6,30.27,NNE,20,4.5,10.5,33,0.00,,---,0.00,VWS V14.01,2013-02-22 04:39:00,
2013-02-21 23:44:00,21.0,-3.6,30.27,NW,321,5.8,10.1,33,0.00,,---,0.00,VWS V14.01,2013-02-22 04:44:00,
2013-02-21 23:49:00,21.0,-3.6,30.27,NNW,331,4.9,7.4,33,0.00,,---,0.00,VWS V14.01,2013-02-22 04:49:00,
2013-02-21 23:54:00,21.0,-3.6,30.27,North,356,0.0,8.3,33,0.00,,---,0.00,VWS V14.01,2013-02-22 04:54:00,
2013-02-21 23:59:00,21.0,-3.6,30.27,North,356,2.7,12.5,33,0.00,,---,0.00,VWS V14.01,2013-02-22 04:59:00,